Hourly Weather Roundup
Issued by NWS Central Illinois

Home | Current Version | Previous Version | Text Only | Print | Product List | Glossary On
Versions: 1 2 3 4 5 6 7 8 9 10 11 12 13 14 15 16 17 18 19 20 21 22 23 24 25 26 27 28 29 30 31 32 33 34 35 36 37 38 39 40 41 42 43 44 45 46 47 48 49 50
000
NZUS43 KILX 272010
HWRILX

AREA WEATHER ROUNDUP
NATIONAL WEATHER SERVICE, LINCOLN IL
300 PM CDT WED MAY 27 2015


CITY           SKY/WX    TMP DP  RH WIND       PRES   REMARKS
BLOOMINGTON    MOSUNNY   78  61  55 W10G20    30.05S
CHAMPAIGN      FAIR      81  61  50 W17       30.05R HX  82
DANVILLE       MOSUNNY   79  63  58 W15G24    30.00S HX  81
DECATUR        MOSUNNY   79  59  50 W16       30.05R HX  80
EFFINGHAM      MOSUNNY   82  53  36 SW12G23   30.07S HX  81
FLORA          CLOUDY    79  60  50 SW10      30.08S HX  80
GALESBURG      MOSUNNY   76  56  51 N9        30.06R
JACKSONVILLE   MOSUNNY   77  60  55 NW13      30.07S
LACON          MOSUNNY   76  58  52 NW8       30.03S
LAWRENCEVILLE  CLOUDY    82  58  43 SW14      30.07F HX  82
LITCHFIELD     MOSUNNY   78  61  55 W14       30.07R
$$


CITY           SKY/WX    TMP DP  RH WIND       PRES   REMARKS
LINCOLN        MOSUNNY   78  58  50 NW6       30.02S
MACOMB         MOSUNNY   75  60  58 NW7       30.08S
MATTOON        NOT AVBL
MT CARMEL AP   CLOUDY    84  54  34 SW14      30.06F HX  83
OLNEY-NOBLE AP PTSUNNY   79  59  50 SW7       30.08S HX  80
PARIS          MOSUNNY   83  61  46 SW15G22   30.05S HX  83
PEORIA         PTSUNNY   79  59  50 VRB5      30.05R HX  80
PONTIAC        PTSUNNY   78  60  52 W17G23    30.03S HX  80
RANTOUL        PTSUNNY   80  61  53 W15G21    30.04R HX  81
ROBINSON       PTSUNNY   82  56  42 SW6G16    30.07F HX  81
SPRINGFIELD    MOSUNNY   80  57  45 W15       30.05S HX  80
TAYLORVILLE    PTSUNNY   77  59  53 W10       30.06R
$$

...REGIONAL REPORTS...


CITY           SKY/WX    TMP DP  RH WIND       PRES   REMARKS
CHICAGO O`HARE CLOUDY    70  57  63 NW15      30.01R
KANKAKEE       MOSUNNY   78  61  56 W15G23    30.02S
MOLINE         SUNNY     79  56  45 NW10      30.03R HX  80
MOUNT VERNON   PTSUNNY   81  64  57 SW14      30.09S HX  82
PITTSFIELD     MOSUNNY   78  60  53 NW9G18    30.09R
QUINCY         SUNNY     77  57  50 NW8       30.07S
ROCKFORD       MOSUNNY   75  56  51 NW13      30.04R
$$


CITY           SKY/WX    TMP DP  RH WIND       PRES   REMARKS
BURLINGTON     MOSUNNY   77  59  53 VRB5      30.06R
CEDAR RAPIDS   MOSUNNY   77  59  53 VRB7      30.04S
DES MOINES     MOSUNNY   81  54  39 SW12G17   30.06R HX  81
KIRKSVILLE     SUNNY     80  56  43 N7        30.09S HX  80
OTTUMWA        SUNNY     78  56  46 W7        30.07R
ST LOUIS       MOSUNNY   83  61  47 NW12G17   30.07R HX  83
$$


CITY           SKY/WX    TMP DP  RH WIND       PRES   REMARKS
TERRE HAUTE    MOSUNNY   81  59  47 S12G22    30.05R HX  81
EVANSVILLE     CLOUDY    79  67  66 SW13      30.10F HX  81
INDIANAPOLIS   PTSUNNY   77  60  55 SW16      30.04R
LAFAYETTE      CLOUDY    73  66  78 SW10      30.01R THUNDER
MADISON        MOSUNNY   74  54  49 NW6       30.01S
MILWAUKEE      MOSUNNY   72  54  53 N14G21    29.99R
$$





USA.gov is the U.S. government's official web portal to all federal, state and local government web resources and services.